Regional Weather Roundup
Issued by NWS

Home | Current Version | Previous Version | Graphics & Text | Print | Product List | Glossary On
Versions: 1 2 3 4 5 6 7 8 9 10 11 12 13 14 15 16 17 18 19 20 21 22 23 24 25 26 27 28 29 30 31 32 33 34 35 36 37 38 39 40 41 42 43 44 45 46 47 48 49 50
000
ASUS43 KMKX 230400
RWRWI

WISCONSIN REGIONAL WEATHER ROUNDUP
NATIONAL WEATHER SERVICE MILWAUKEE/SULLIVAN WI
1100 PM CDT MON MAY 22 2017

NOTE: "FAIR" INDICATES FEW OR NO CLOUDS BELOW 12,000 FEET WITH NO
SIGNIFICANT WEATHER AND/OR OBSTRUCTIONS TO VISIBILITY.

WIZ001-002-006>008-014>016-023>028-230500-
NORTHWEST WISCONSIN

CITY           SKY/WX    TMP DP  RH WIND       PRES   REMARKS
SUPERIOR ARPT  NOT AVBL
ASHLAND        CLOUDY    49  45  86 SE3       29.83S
HAYWARD        MOCLDY    49  45  86 CALM      29.83S
SIREN          PTCLDY    45  43  91 CALM      29.83F
CUMBERLAND     CLOUDY    45  43  93 N3        29.83S
RICE LAKE      CLOUDY    49  46  88 CALM      29.84F
CHETEK         CLOUDY    49  46  90 CALM      29.83F
LADYSMITH      PTCLDY    44  43  93 CALM      29.85S
EAU CLAIRE     NOT AVBL
MENOMONIE      CLOUDY    54  47  75 N5        29.82S
NEW RICHMOND   CLOUDY    51  44  76 N3        29.84S
OSCEOLA        CLOUDY    50  46  84 CALM      29.86S
$$

WIZ003>005-009-010-017-018-230500-
NORTH CENTRAL WISCONSIN

CITY           SKY/WX    TMP DP  RH WIND       PRES   REMARKS
MANITOWISH WTR CLOUDY    46  46 100 CALM      29.83F
ARBOR VITAE    MOCLDY    49  46  90 CALM      29.84S
WOODRUFF       MOCLDY    49  46  90 CALM      29.84S
RHINELANDER    CLEAR     44  41  89 CALM      29.85S
EAGLE RIVER    CLOUDY    47  45  90 CALM      29.84F
LAND O LAKES   CLOUDY    48  46  90 CALM      29.86F
PHILLIPS       MOCLDY    45  45  99 CALM      29.83S
TOMAHAWK       CLEAR     41  40  95 CALM      29.85R
MEDFORD        PTCLDY    47  43  85 NE3       29.82F
MERRILL        CLOUDY    46  44  91 CALM      29.85S
$$

WIZ029-030-035-036-043>047-230500-
CENTRAL WISCONSIN

CITY           SKY/WX    TMP DP  RH WIND       PRES   REMARKS
WAUSAU         CLEAR     50  42  74 N3        29.81F
MOSINEE        CLEAR     50  43  76 NE5       29.84F
MARSHFIELD     PTCLDY    53  43  68 NE5       29.82S
STEVENS POINT  CLEAR     47  44  88 NE3       29.84R
WAUPACA        PTCLDY    56  47  71 E3        29.83S
WAUTOMA        PTCLDY    52  49  89 CALM      29.82F
WISC RAPIDS    PTCLDY    54  45  71 NE5       29.83S
CAMP DOUGLAS   TSTM      57  52  82 CALM      29.81S
$$

WIZ011>013-019>022-031-037>040-048>050-230500-
NORTHEAST WISCONSIN

CITY           SKY/WX    TMP DP  RH WIND       PRES   REMARKS
ANTIGO         PTCLDY    45  42  89 CALM      29.85S
SHAWANO        PTCLDY    56  48  75 E5        29.85R
OCONTO         CLEAR     50  46  84 CALM      29.84F
STURGEON BAY   CLEAR     49  46  90 E6        29.86S
GREEN BAY      PTCLDY    53  49  86 E5        29.85S
MANITOWOC      NOT AVBL
APPLETON       MOCLDY    57  48  72 CALM      29.82S
CLINTONVILLE   CLEAR     50  43  76 CALM      29.83S
OSHKOSH        CLOUDY    55  50  83 S8        29.82F
$$

WIZ032>034-041-042-053>061-230500-
SOUTHWEST WISCONSIN

CITY           SKY/WX    TMP DP  RH WIND       PRES   REMARKS
LA CROSSE      LGT RAIN  58  56  93 SW8       29.81R
SPARTA         CLOUDY    53  50  89 CALM      29.82S
VIROQUA        CLOUDY    55  51  88 SW5       29.81F
BOSCOBEL       LGT RAIN  57  55  93 MISG      29.82S
PRAIRIE DU CHI CLOUDY    57  54  89 CALM      29.81R
PLATTEVILLE    CLOUDY    57  57 100 S10       29.85S
$$

WIZ056-057-062-063-064-067-068-230500-
SOUTH CENTRAL WISCONSIN

CITY           SKY/WX    TMP DP  RH WIND       PRES   REMARKS
REEDSBURG      CLOUDY    56  54  91 S3        29.81F
BARABOO/DELLS  CLOUDY    56  53  89 S7        29.82S
LONE ROCK      CLOUDY    57  53  86 E9        29.82S
MINERAL POINT  CLOUDY    55  55 100 S8        29.83F
MADISON        LGT RAIN  59  56  89 S7        29.82F
MIDDLETON      CLOUDY    58  53  83 S12G17    29.83F
WATERTOWN      MOCLDY    56  56 100 S5        29.84S
MONROE         MOCLDY    55  54  94 S12       29.85F
JANESVILLE     CLOUDY    59  55  88 SW9       29.86S
$$

WIZ051-052-058>065-066-070>072-230500-
SOUTHEAST WISCONSIN

CITY           SKY/WX    TMP DP  RH WIND       PRES   REMARKS
MILWAUKEE      CLOUDY    63  53  70 SW9       29.86F
WAUKESHA       CLOUDY    55  52  88 S6        29.86
MILWAUKEE/TIMM   N/A     57  52  82 S5        29.86F
RACINE         CLOUDY    62  53  72 SW13      29.87F
KENOSHA        MOCLDY    61  53  75 SW14      29.87F
FOND DU LAC    PTCLDY    55  49  80 S3        29.83F
SHEBOYGAN      CLOUDY    52  50  93 S3        29.83F
WEST BEND      PTCLDY    57  54  88 SW5       29.85S
JUNEAU         CLOUDY    56  54  91 S5        29.85S
$$

LSZ147-162-230500-
LAKE SUPERIOR

STATION/POSITION TIME  TEMP    WIND        PRES    WAVE
                       AIR SEA DIR/SP/G            HT/PER
                 (UTC) (F)     (DEG/KT/KT) (MB)    (FT/S)
W MID LAKE BUOY  0250   40 37  230/  4/  6 1010.6R   1/ 4
DEVILS ISLAND    0300   47     280/  7/  8 1010.2R
PORT WING        0340   48     130/  2/  2 1010.5R
SAXON HARBOR     0340   51     180/  3/  6 1010.2S
$$

LMZ867-665-643>646-230500-
LAKE MICHIGAN

STATION/POSITION TIME  TEMP    WIND        PRES    WAVE
                       AIR SEA DIR/SP/G            HT/PER
                 (UTC) (F)     (DEG/KT/KT) (MB)    (FT/S)
CHAMBERS ISLAND  0340   45        CALM     1010.5S
N MID LAKE BUOY  0250   42 39  190/  6/  6 1012.0R   3/ 6
NORTHPORT PIER   0340   47     200/  1/  3 1011.2S
KEWAUNEE LAKESHO 0330           20/  5/  6 1010.7F
SHEBOYGAN LAKESH 0300   55     210/  4/  4 1010.5R
PORT WASHINGTON  0330   52     260/  2/  5 1011.5F
ATWATER BUOY     0209   48     150/  2/  4 1011.3R
MILWAUKEE LAKESH 0330   56     210/  4/  7   N/A
S MID LAKE BUOY  0250   50 45  210/ 10/ 10 1012.4R   1/ 3
KENOSHA   LAKESH 0300   63     210/ 10/ 15 1011.5
$$

TC  - TEMPERATURE IN CELSIUS
VSB - VISIBILITY IN STATUTE MILES
WCI - WIND CHILL INDEX
HX  - HEAT INDEX





USA.gov is the U.S. government's official web portal to all federal, state and local government web resources and services.